User: anonymous   Login
Location: Unspecified
(0.0000°N, 0.0000°E)
Time: 04:43:28
(UTC+00:00)
Language:

SYRACUSE 3B - Orbit

View from above orbital plane
View from above orbital plane
View from above satellite
View from above satellite

Ground track
Ground track

The orbit data is extracted from the following two-line orbital elements,

1 29273U 06033B   18292.24056726 -.00000052 +00000-0 +00000-0 0  9997
2 29273 000.0118 189.5894 0003635 017.7787 261.6988 01.00269634044664
Epoch (UTC): 19 October 2018 05:46:25
Eccentricity: 0.0003635
inclination: 0.0118°
perigee height: 35771 km
apogee height: 35802 km
right ascension of ascending node: 189.5894°
argument of perigee: 17.7787°
revolutions per day: 1.00269634
mean anomaly at epoch: 261.6988°
orbit number at epoch: 4466

The dashed part of the orbit path shows where the satellite is in the earth's shadow,  

DLR